FW7847 Weather Reports


time (UTC)temp
C
wind
direction
speed
KPH
gust
KPH
rain 1hr
cm
rain 24hr
cm
rain mn
cm
humidity
%
barometer
mb
20260502170348 6 259 11.3 16.1 0.00 0.00 0.00 50 1019.0
20260502164336 6 297 8.0 24.1 0.00 0.00 0.00 51 1019.3
20260502163831 6 222 12.9 24.1 0.00 0.00 0.00 51 1019.0
20260502163328 6 231 6.4 16.1 0.00 0.00 0.00 50 1019.2
20260502162826 6 39 8.0 19.3 0.00 0.00 0.00 51 1019.0
20260502162322 6 283 14.5 24.1 0.00 0.00 0.00 49 1019.1
20260502161819 6 325 8.0 22.5 0.00 0.00 0.00 50 1019.2
20260502161315 6 245 8.0 14.5 0.00 0.00 0.00 51 1019.3
20260502160813 6 348 19.3 27.4 0.00 0.00 0.00 52 1019.3
20260502160312 6 223 8.0 14.5 0.00 0.00 0.00 51 1019.2
20260502152241 5 257 6.4 24.1 0.00 0.00 0.00 54 1019.1
20260502151738 5 304 11.3 19.3 0.00 0.00 0.00 53 1019.2
20260502151235 5 327 14.5 24.1 0.00 0.00 0.00 53 1019.2
20260502150733 5 292 19.3 24.1 0.00 0.00 0.00 54 1019.3
20260502150230 5 321 11.3 19.3 0.00 0.00 0.00 55 1019.2
20260502130618 3 282 19.3 33.8 0.00 0.00 0.00 71 1019.3
20260502130116 3 332 8.0 22.5 0.00 0.00 0.00 72 1019.3
20260502123601 3 355 17.7 30.6 0.00 0.00 0.00 74 1019.1
20260502123058 3 319 22.5 27.4 0.00 0.00 0.00 74 1019.3
20260502122554 3 292 14.5 24.1 0.00 0.00 0.00 74 1019.1
20260502122051 2 125 14.5 41.8 0.00 0.00 0.00 74 1019.1
20260502121549 3 290 9.7 27.4 0.00 0.00 0.00 75 1019.0
20260502121046 2 242 4.8 24.1 0.00 0.00 0.00 75 1018.9
20260502120542 2 268 9.7 11.3 0.00 0.00 0.00 76 1019.2
20260502115538 2 231 3.2 4.8 0.00 0.00 0.00 79 1018.9
20260502115033 1 255 6.4 16.1 0.00 0.00 0.00 79 1019.1
20260502114530 1 286 8.0 11.3 0.00 0.00 0.00 80 1019.0
20260502114027 1 259 4.8 8.0 0.00 0.00 0.00 81 1019.1
20260502113524 1 273 4.8 8.0 0.00 0.00 0.00 82 1019.1
20260502113023 1 233 0.0 4.8 0.00 0.00 0.00 84 1018.9
20260502112520 1 262 3.2 11.3 0.00 0.00 0.00 85 1018.7
20260502112018 1 286 4.8 8.0 0.00 0.00 0.00 86 1018.8
20260502111515 0 261 4.8 8.0 0.00 0.00 0.00 88 1018.7
20260502111012 0 247 3.2 4.8 0.00 0.00 0.00 90 1018.6
20260502110509 0 230 3.2 3.2 0.00 0.00 0.00 91 1018.8
20260502110007 0 234 0.0 3.2 0.00 0.00 0.00 92 1018.8
20260502105504 0 241 3.2 4.8 0.00 0.00 0.00 92 1018.8
20260502105001 0 243 3.2 8.0 0.00 0.00 0.00 93 1018.9
20260502104459 0 241 4.8 4.8 0.00 0.00 0.00 94 1018.6
20260502103956 0 236 3.2 4.8 0.00 0.00 0.00 94 1018.8
20260502103454 0 226 3.2 3.2 0.00 0.00 0.00 94 1018.6
20260502102950 0 233 1.6 3.2 0.00 0.00 0.00 93 1018.7
20260502102448 0 229 0.0 0.0 0.00 0.00 0.00 93 1018.7
20260502101944 0 231 0.0 0.0 0.00 0.00 0.00 93 1018.5
20260502101443 0 226 0.0 0.0 0.00 0.00 0.00 93 1018.6
20260502100941 0 228 0.0 0.0 0.00 0.00 0.00 92 1018.4
20260502100439 0 229 0.0 0.0 0.00 0.00 0.00 92 1018.5
20260502091414 1 228 0.0 0.0 0.00 0.00 0.00 89 1018.3
20260502090911 1 228 0.0 0.0 0.00 0.00 0.00 88 1018.1
20260502090408 1 228 0.0 0.0 0.00 0.00 0.00 88 1018.4
20260502071302 2 30 4.8 8.0 0.00 0.00 0.00 84 1017.9
20260502070801 2 206 1.6 8.0 0.00 0.00 0.00 83 1018.0
20260502070258 3 173 4.8 8.0 0.00 0.00 0.00 83 1018.1
20260502065757 3 177 1.6 3.2 0.00 0.00 0.00 83 1017.9
20260502065254 3 179 3.2 4.8 0.00 0.00 0.00 82 1017.9
20260502064752 3 158 4.8 4.8 0.00 0.00 0.00 83 1018.1
20260502064250 3 230 0.0 3.2 0.00 0.00 0.00 82 1018.3
20260502063747 3 185 3.2 4.8 0.00 0.00 0.00 82 1018.0
20260502063245 3 221 0.0 0.0 0.00 0.00 0.00 82 1018.1
20260502062741 3 199 1.6 3.2 0.00 0.00 0.00 82 1018.1
20260502062239 3 219 0.0 3.2 0.00 0.00 0.00 82 1018.1
20260502061738 3 225 1.6 3.2 0.00 0.00 0.00 84 1018.1
20260502061235 3 228 0.0 0.0 0.00 0.00 0.00 84 1018.2
20260502060730 3 224 0.0 0.0 0.00 0.00 0.00 83 1018.4
20260502060226 3 230 0.0 0.0 0.00 0.00 0.00 84 1018.2
20260502055724 3 231 0.0 0.0 0.00 0.00 0.00 83 1018.2
20260502055222 3 229 0.0 0.0 0.00 0.00 0.00 82 1018.2
20260502054721 3 227 0.0 0.0 0.00 0.00 0.00 82 1018.1
20260502054218 3 221 0.0 3.2 0.00 0.00 0.00 82 1018.3
20260502053715 3 225 0.0 0.0 0.00 0.00 0.00 81 1018.2
20260502053212 3 219 0.0 3.2 0.00 0.00 0.00 81 1018.3
20260502052710 3 231 0.0 0.0 0.00 0.00 0.00 81 1018.4
20260502052209 3 232 3.2 3.2 0.00 0.00 0.00 80 1018.4
20260502051706 3 224 0.0 0.0 0.00 0.00 0.00 79 1018.4
20260502051204 3 221 0.0 3.2 0.00 0.00 0.00 79 1018.6
20260502050700 3 203 0.0 3.2 0.00 0.00 0.00 79 1018.4
20260502050157 3 225 0.0 3.2 0.00 0.00 0.00 79 1018.4
20260502045653 3 228 0.0 3.2 0.00 0.00 0.00 79 1018.2
20260502045151 3 223 1.6 3.2 0.00 0.00 0.00 79 1018.3
20260502044647 3 206 3.2 4.8 0.00 0.00 0.00 78 1018.1
20260502044143 3 223 1.6 3.2 0.00 0.00 0.00 78 1018.2
20260502043642 3 224 0.0 0.0 0.00 0.00 0.00 79 1018.0
20260502043139 3 229 1.6 3.2 0.00 0.00 0.00 78 1018.0
20260502042638 3 97 1.6 4.8 0.00 0.00 0.00 78 1017.9
20260502042135 3 189 3.2 11.3 0.00 0.00 0.00 77 1018.0
20260502041633 3 183 4.8 8.0 0.00 0.00 0.00 78 1017.8
20260502041130 3 177 4.8 8.0 0.00 0.00 0.00 77 1017.8
20260502040626 3 142 8.0 14.5 0.00 0.00 0.00 77 1017.8
20260502040124 3 180 3.2 8.0 0.00 0.00 0.00 77 1017.6
20260502035620 3 335 4.8 14.5 0.00 0.00 0.00 77 1017.9
20260502035117 4 110 6.4 8.0 0.00 0.00 0.00 76 1017.7
20260502034615 4 169 3.2 8.0 0.00 0.00 0.00 73 1017.7
20260502034113 4 246 3.2 4.8 0.00 0.00 0.00 71 1017.5
20260502033611 5 242 0.0 8.0 0.00 0.00 0.00 72 1017.6
20260502033108 5 235 1.6 8.0 0.00 0.00 0.00 71 1017.8
20260502032603 5 308 4.8 8.0 0.00 0.00 0.00 71 1017.7
20260502032100 5 235 1.6 8.0 0.00 0.00 0.00 71 1017.5
20260502031558 5 179 0.0 4.8 0.00 0.00 0.00 71 1017.7
20260502031055 5 228 4.8 14.5 0.00 0.00 0.00 70 1017.6
20260502030550 5 346 11.3 14.5 0.00 0.00 0.00 70 1017.6
20260502030047 5 32 4.8 16.1 0.00 0.00 0.00 70 1017.7
20260502025544 5 109 6.4 14.5 0.00 0.00 0.00 70 1017.6
20260502025042 5 348 6.4 11.3 0.00 0.00 0.00 69 1017.4
20260502024539 5 246 8.0 14.5 0.00 0.00 0.00 66 1017.6
20260502024037 5 319 6.4 8.0 0.00 0.00 0.00 67 1017.4
20260502023534 5 280 8.0 11.3 0.00 0.00 0.00 66 1017.4
20260502023032 5 302 9.7 14.5 0.00 0.00 0.00 67 1017.5
20260502022528 5 233 3.2 4.8 0.00 0.00 0.00 68 1017.5
20260502022026 5 242 4.8 8.0 0.00 0.00 0.00 68 1017.5
20260502021523 5 251 4.8 8.0 0.00 0.00 0.00 68 1017.3
20260502021020 5 229 3.2 4.8 0.00 0.00 0.00 67 1017.2
20260502020518 5 255 4.8 8.0 0.00 0.00 0.00 67 1017.1
20260502020014 5 242 1.6 8.0 0.00 0.00 0.00 67 1017.2
20260502015512 5 267 4.8 8.0 0.00 0.00 0.00 67 1017.1
20260502015008 5 236 3.2 11.3 0.00 0.00 0.00 67 1017.4
20260502014505 5 284 8.0 11.3 0.00 0.00 0.00 67 1017.3
20260502014002 5 261 4.8 11.3 0.00 0.00 0.00 67 1017.1
20260502013457 5 274 9.7 11.3 0.00 0.00 0.00 67 1017.1
20260502012954 5 237 4.8 11.3 0.00 0.00 0.00 68 1017.1
20260502012452 5 234 1.6 8.0 0.00 0.00 0.00 68 1017.0
20260502011950 5 251 9.7 14.5 0.00 0.00 0.00 67 1016.8
20260502011445 6 274 4.8 8.0 0.00 0.00 0.00 68 1017.0
20260502010942 6 258 4.8 11.3 0.00 0.00 0.00 67 1016.8
20260502010438 5 249 3.2 4.8 0.00 0.00 0.00 69 1016.7
20260502005934 5 239 6.4 11.3 0.00 0.00 0.00 68 1016.6
20260502005432 5 233 1.6 3.2 0.00 0.00 0.00 68 1016.7
20260502004931 5 234 0.0 4.8 0.00 0.00 0.00 67 1016.6
20260502004427 6 242 4.8 8.0 0.00 0.00 0.00 67 1016.8
20260502003924 6 245 4.8 8.0 0.00 0.00 0.00 67 1016.7
20260502003421 6 252 4.8 8.0 0.00 0.00 0.00 67 1016.7
20260502002917 6 238 6.4 14.5 0.00 0.00 0.00 67 1016.8
20260502002415 6 234 1.6 4.8 0.00 0.00 0.00 67 1016.6
20260502001912 6 237 3.2 8.0 0.00 0.00 0.00 66 1016.8
20260502001410 6 311 11.3 14.5 0.00 0.00 0.00 65 1016.5
20260502000907 6 241 4.8 11.3 0.00 0.00 0.00 67 1016.4
20260502000405 6 290 8.0 16.1 0.00 0.00 0.00 66 1016.4
20260501235901 6 235 3.2 14.5 0.00 0.00 0.00 66 1016.5
20260501235357 6 271 12.9 16.1 0.00 0.00 0.00 66 1016.3
20260501234852 6 250 8.0 16.1 0.00 0.00 0.00 66 1016.4
20260501234349 6 273 11.3 16.1 0.00 0.00 0.00 66 1016.5
20260501233847 6 282 19.3 24.1 0.00 0.00 0.00 66 1016.1
20260501233344 6 228 0.0 24.1 0.00 0.00 0.00 67 1016.0
20260501232840 6 272 6.4 11.3 0.00 0.00 0.00 67 1016.1
20260501232338 6 237 4.8 19.3 0.00 0.00 0.00 67 1016.4
20260501231835 6 262 11.3 19.3 0.00 0.00 0.00 66 1016.3
20260501231333 6 266 6.4 16.1 0.00 0.00 0.00 67 1016.0
20260501230832 6 277 9.7 14.5 0.00 0.00 0.00 66 1016.1
20260501230330 6 287 9.7 22.5 0.00 0.00 0.00 66 1016.0
20260501225827 6 248 8.0 14.5 0.00 0.00 0.00 66 1016.4
20260501225325 6 308 14.5 16.1 0.00 0.00 0.00 66 1016.3
20260501224821 6 283 17.7 22.5 0.00 0.00 0.00 67 1016.1
20260501224318 6 282 19.3 24.1 0.00 0.00 0.00 67 1016.5
20260501223814 6 344 16.1 19.3 0.00 0.00 0.00 68 1016.4
20260501223310 6 208 4.8 19.3 0.00 0.00 0.00 67 1016.5
20260501222806 6 257 9.7 14.5 0.00 0.00 0.00 67 1016.1
20260501222305 6 213 1.6 11.3 0.00 0.00 0.00 66 1016.1
20260501221800 6 275 12.9 22.5 0.00 0.00 0.00 65 1016.1
20260501221258 7 249 8.0 14.5 0.00 0.00 0.00 64 1016.0
20260501220756 7 283 14.5 19.3 0.00 0.00 0.00 64 1015.9
20260501220252 7 76 4.8 22.5 0.00 0.00 0.00 65 1016.0
20260501215749 7 281 12.9 24.1 0.00 0.00 0.00 64 1015.8
20260501215245 7 291 14.5 22.5 0.00 0.00 0.00 63 1015.9
20260501214740 7 285 14.5 22.5 0.00 0.00 0.00 61 1015.9
20260501214236 7 248 16.1 19.3 0.00 0.00 0.00 61 1015.6
20260501213732 7 269 8.0 22.5 0.00 0.00 0.00 62 1015.6
20260501213229 7 234 9.7 22.5 0.00 0.00 0.00 62 1015.8
20260501212726 7 285 8.0 16.1 0.00 0.00 0.00 63 1015.6
20260501212222 7 251 4.8 16.1 0.00 0.00 0.00 61 1015.6
20260501211719 7 350 9.7 16.1 0.00 0.00 0.00 61 1015.4
20260501211216 8 288 24.1 27.4 0.00 0.00 0.00 60 1015.3
20260501210713 8 48 4.8 14.5 0.00 0.00 0.00 60 1015.5
20260501210209 7 313 8.0 8.0 0.00 0.00 0.00 61 1015.5
20260501205706 7 289 4.8 8.0 0.00 0.00 0.00 61 1015.2
20260501205203 7 251 9.7 19.3 0.00 0.00 0.00 61 1015.4
20260501204700 7 251 6.4 14.5 0.00 0.00 0.00 60 1015.2
20260501204156 8 317 17.7 19.3 0.00 0.00 0.00 59 1015.2
20260501203653 8 255 6.4 16.1 0.00 0.00 0.00 60 1015.2
20260501203150 8 312 11.3 19.3 0.00 0.00 0.00 59 1015.1
20260501202647 7 226 0.0 22.5 0.00 0.00 0.00 59 1015.1
20260501202144 7 356 12.9 19.3 0.00 0.00 0.00 59 1015.1
20260501201641 7 233 6.4 11.3 0.00 0.00 0.00 59 1015.3
20260501201137 7 335 9.7 24.1 0.00 0.00 0.00 59 1015.2
20260501200634 7 269 11.3 16.1 0.00 0.00 0.00 59 1015.3
20260501200132 8 313 14.5 19.3 0.00 0.00 0.00 59 1015.3
20260501195629 8 298 11.3 22.5 0.00 0.00 0.00 59 1015.4
20260501195125 8 259 12.9 22.5 0.00 0.00 0.00 60 1015.2
20260501194621 8 309 20.9 22.5 0.00 0.00 0.00 60 1015.1
20260501194116 8 267 8.0 11.3 0.00 0.00 0.00 61 1015.1
20260501193614 7 251 4.8 11.3 0.00 0.00 0.00 61 1015.1
20260501193112 8 275 6.4 14.5 0.00 0.00 0.00 61 1014.9
20260501192609 8 304 9.7 14.5 0.00 0.00 0.00 61 1015.0
20260501192106 7 295 8.0 14.5 0.00 0.00 0.00 62 1015.0
20260501191604 8 327 6.4 11.3 0.00 0.00 0.00 62 1015.1
20260501191100 8 274 3.2 8.0 0.00 0.00 0.00 61 1015.1
20260501190556 7 240 3.2 14.5 0.00 0.00 0.00 64 1015.2
20260501190052 7 284 3.2 16.1 0.00 0.00 0.00 64 1015.1
20260501185548 7 313 11.3 16.1 0.00 0.00 0.00 65 1015.2
20260501185044 7 267 11.3 22.5 0.00 0.00 0.00 63 1015.2
20260501184540 7 263 8.0 19.3 0.00 0.00 0.00 64 1014.9
20260501184040 8 239 8.0 19.3 0.00 0.00 0.00 63 1014.7
20260501183538 7 257 11.3 19.3 0.00 0.00 0.00 60 1015.0
20260501183034 8 316 14.5 24.1 0.00 0.00 0.00 60 1014.8
20260501182530 8 78 11.3 22.5 0.00 0.00 0.00 60 1014.8
20260501182027 8 321 8.0 22.5 0.00 0.00 0.00 59 1014.7
20260501181525 7 271 6.4 16.1 0.00 0.00 0.00 61 1014.9
20260501181021 8 340 14.5 19.3 0.00 0.00 0.00 60 1014.9
20260501180519 7 274 17.7 22.5 0.00 0.00 0.00 60 1014.8
20260501180015 8 86 8.0 22.5 0.00 0.00 0.00 60 1014.6
20260501175512 8 315 11.3 19.3 0.00 0.00 0.00 56 1014.8
20260501175009 8 267 3.2 14.5 0.00 0.00 0.00 54 1014.6
20260501174506 8 230 4.8 19.3 0.00 0.00 0.00 55 1014.6
20260501174004 8 265 12.9 16.1 0.00 0.00 0.00 57 1014.7
20260501173501 8 242 8.0 19.3 0.00 0.00 0.00 57 1014.7
20260501172956 8 298 19.3 22.5 0.00 0.00 0.00 58 1014.8
20260501172453 8 325 11.3 19.3 0.00 0.00 0.00 57 1014.7